This is the latest recevied weather packets stored in our database for station/object VE6EN. If no packets are shown the sender has not sent any weather packets the latest 10 day(s).
| Time | Temp. | Humidity | Pressure | Rain* | Wind** | Luminosity | Snow |
|---|---|---|---|---|---|---|---|
| 1777336324 | 8.89° C | 39% | 1008.8 hPa | 0 mm | - | - | - |
| 1777335631 | 8.89° C | 39% | 1008.9 hPa | 0 mm | - | - | - |
| 1777335027 | 8.89° C | 39% | 1008.8 hPa | 0 mm | - | - | - |
| 1777334414 | 8.33° C | 42% | 1008.9 hPa | 0 mm | - | - | - |
| 1777333819 | 7.78° C | 41% | 1008.9 hPa | 0 mm | - | - | - |
| 1777333230 | 7.78° C | 41% | 1008.9 hPa | 0 mm | - | - | - |
| 1777332628 | 7.78° C | 43% | 1008.9 hPa | 0 mm | - | - | - |
| 1777332008 | 7.78° C | 41% | 1009 hPa | 0 mm | - | - | - |
| 1777331403 | 7.78° C | 39% | 1008.9 hPa | 0 mm | - | - | - |
| 1777330806 | 7.78° C | 41% | 1008.9 hPa | 0 mm | - | - | - |
| 1777330211 | 7.78° C | 39% | 1008.9 hPa | 0 mm | - | - | - |
| 1777329617 | 7.22° C | 42% | 1008.9 hPa | 0 mm | - | - | - |
| 1777328436 | 7.78° C | 41% | 1008.9 hPa | 0 mm | - | - | - |
| 1777327812 | 7.22° C | 43% | 1008.9 hPa | 0 mm | - | - | - |
| 1777327233 | 7.22° C | 42% | 1009 hPa | 0 mm | - | - | - |
| 1777326053 | 6.67° C | 47% | 1009.1 hPa | 0 mm | - | - | - |
| 1777325423 | 6.67° C | 45% | 1009 hPa | 0 mm | - | - | - |
| 1777324807 | 6.67° C | 46% | 1009.2 hPa | 0 mm | - | - | - |
| 1777324212 | 6.67° C | 46% | 1009.2 hPa | 0 mm | - | - | - |
| 1777323600 | 6.11° C | 44% | 1009.2 hPa | 0 mm | - | - | - |
| 1777322411 | 6.67° C | 49% | 1009.2 hPa | 0 mm | - | - | - |
| 1777321804 | 6.11° C | 50% | 1009.3 hPa | 0 mm | - | - | - |
| 1777321207 | 6.11° C | 50% | 1009.3 hPa | 0 mm | - | - | - |
| 1777320031 | 6.11° C | 52% | 1009.4 hPa | 0 mm | - | - | - |
| 1777319407 | 5.56° C | 52% | 1009.4 hPa | 0 mm | - | - | - |
* Rain latest hour (hover to see other rain measurements)
** Current wind speed in m/s (hover to see current wind gust speed)